Lapse_Rate
5.9 5.9 6.0 5.8 5.9 6.1 6.0 6.0 5.9 5.9 5.8 5.7 5.8 5.9 6.0 6.2 6.1 6.2 6.3 6.3 6.2 6.1
5.9 6.0 5.9 6.0 6.2 6.1 6.0 6.2 5.8 5.7 5.6 5.7 5.9 6.0 6.1 6.2 6.2 6.2 6.2 6.2 6.3 6.4
6.3 6.3 6.3 6.3 6.0 6.1 6.1 5.9 5.8 6.1 5.8 5.8 5.9 5.9 6.1 6.3 6.2 6.1 6.2 6.1 6.2 6.5
6.2 6.2 6.3 6.2 6.2 6.0 6.2 6.1 6.1 6.0 5.9 5.8 5.9 5.9 5.9 5.9 6.1 6.2 6.1 6.2 6.1 6.2
6.3 6.3 6.2 6.2 6.1 6.0 6.3 6.4 6.4 6.1 6.0 6.1 5.9 5.7 5.9 6.0 6.1 5.8 5.5 5.8 5.8 5.9
6.3 6.3 6.2 6.3 6.3 6.2 6.3 6.6 6.4 6.4 6.3 6.3 6.3 6.3 6.1 5.9 5.7 5.7 5.7 4.8 5.6 5.5
6.2 6.3 6.4 6.6 6.5 6.3 6.4 6.2 6.5 6.5 6.4 6.2 6.2 6.1 6.1 5.8 5.7 5.6 5.4 4.9 5.1 5.5
6.4 6.4 6.6 6.5 6.5 6.5 6.1 6.2 6.3 6.2 6.3 6.2 5.9 6.1 6.1 6.0 5.8 5.6 5.2 5.4 5.4 5.2
6.2 6.3 6.5 6.6 6.5 6.2 6.2 6.2 6.3 6.4 6.4 6.2 5.9 6.1 6.1 5.9 6.0 5.7 5.5 5.6 5.5 5.3
6.4 6.4 6.7 6.7 6.6 6.5 6.5 6.6 6.5 6.4 6.4 6.2 6.0 6.1 6.1 6.0 6.0 6.2 6.0 5.7 5.7 5.7
6.0 6.1 6.2 6.4 6.6 6.6 6.5 6.7 6.9 6.7 6.5 6.3 6.0 6.4 6.1 6.1 6.1 6.1 6.1 6.2 6.0 6.0
6.3 5.8 6.1 6.3 6.5 6.7 6.6 6.6 6.6 6.6 6.6 6.7 6.4 6.2 6.0 6.2 6.3 6.3 6.0 6.0 6.2 6.2
5.6 5.5 5.9 6.2 6.3 6.8 7.0 7.0 6.9 6.6 6.4 6.6 7.0 6.7 6.2 6.4 6.2 6.3 6.3 6.2 6.1 6.0
5.9 5.4 5.8 5.7 6.0 6.4 6.8 7.0 7.0 6.7 6.7 6.9 7.0 6.5 6.2 6.2 6.0 6.1 6.2 6.2 6.4 6.2
Wind_Speed
18 13 13 16 13 11 11 11 12 12 11 11 12 10 9 7 7 7 6 8 5 4
17 16 15 16 13 11 12 10 12 13 12 11 11 10 10 7 9 8 7 6 6 4
18 17 16 14 16 15 13 13 14 13 13 12 11 11 10 7 7 9 6 6 7 5
17 17 15 15 15 15 14 15 15 15 15 14 13 12 11 11 11 12 9 7 8 8
16 16 15 15 16 16 16 15 15 15 15 15 15 15 15 14 11 13 13 12 10 10
13 16 16 17 17 15 15 15 15 15 16 15 15 13 13 14 13 13 13 12 13 12
14 15 16 15 16 15 14 15 15 16 15 15 14 14 14 14 12 12 12 12 13 12
15 14 14 14 14 14 14 14 14 14 13 13 12 11 13 12 13 13 12 11 11 10
14 13 13 14 15 15 15 14 14 13 13 13 11 15 17 15 12 12 12 11 7 6
14 14 14 14 14 15 16 14 14 15 15 16 15 17 19 18 12 11 11 8 9 7
13 16 14 13 14 14 13 15 13 14 14 13 13 17 19 19 14 7 4 6 9 10
17 14 15 15 14 12 11 11 12 10 12 13 9 14 17 14 8 7 6 6 7 10
2 11 14 14 13 6 10 7 6 6 5 6 6 8 14 13 7 8 7 7 8 13
5 6 4 6 3 6 7 7 7 7 6 7 8 8 10 14 9 9 8 8 7 7
Wind_Direction
162 166 172 174 169 172 177 180 176 180 181 180 179 173 175 179 183 184 189 190 188 191
166 170 175 177 175 170 174 176 177 181 182 180 181 180 176 183 189 184 192 201 196 193
169 174 178 177 178 176 173 176 178 181 185 187 184 182 180 183 186 189 195 197 193 198
170 174 177 180 178 176 172 177 179 183 187 189 188 185 186 192 188 195 196 199 194 209
172 176 175 180 180 177 178 179 180 184 189 190 190 190 194 196 197 201 199 198 196 208
172 176 179 180 183 178 178 177 181 183 189 193 196 195 198 200 203 201 206 200 202 207
184 180 185 184 180 177 174 177 183 186 189 193 192 196 196 199 204 212 211 203 205 200
192 188 184 177 176 175 177 181 183 185 188 190 190 193 197 202 206 210 211 206 207 207
190 187 179 175 176 177 185 186 187 193 195 196 201 199 197 203 208 207 209 205 190 136
195 191 187 182 180 185 190 190 196 201 204 208 209 200 201 202 210 207 212 201 166 158
204 191 184 189 191 194 193 191 192 198 201 204 210 197 200 200 210 190 166 170 177 171
189 190 178 184 188 187 188 190 194 196 200 207 206 190 191 175 140 116 103 106 118 132
212 200 179 181 182 174 181 178 160 142 158 154 139 140 152 145 139 125 111 89 91 103
41 353 126 119 121 132 123 112 105 104 86 104 115 116 124 131 134 131 119 115 106 107